Change the Weather History Date:

Sunday, May 4, 2014

  Actual Average (YBBN) Record (YBBN)
Temperature  
Mean Temperature 56 °F -  
Max Temperature 69 °F 74 °F 81 °F (2013)
Min Temperature 42 °F 58 °F 48 °F (2006)
Degree Days  
Heating Degree Days 10    
Growing Degree Days 6 (Base 50)    
Moisture  
Dew Point 40 °F    
Average Humidity 57    
Maximum Humidity 93    
Minimum Humidity 22    
Precipitation  
Precipitation 0.00 in - - ()
Sea Level Pressure  
Sea Level Pressure 29.86 in    
Wind  
Wind Speed 7 mph ()    
Max Wind Speed 18 mph    
Max Gust Speed -    
Visibility 6.2 miles    
Events      
Averages and records for this station are not official NWS values.
T = Trace of Precipitation, MM = Missing Value Source: Averaged Metar Reports

Daily Weather History Graph

Daily Weather History Graph

Search for Another Location

Airport or City:

Trip Planner

Search our weather history database for the weather conditions in past years. The results will help you decide how hot, cold, wet, or windy it might be!

Date:

Astronomy

May. 04, 2014 Rise Set
Actual Time 6:13 AM AEST 5:11 PM AEST
Civil Twilight 5:49 AM AEST 5:35 PM AEST
Nautical Twilight 5:21 AM AEST 6:03 PM AEST
Astronomical Twilight 4:53 AM AEST 6:31 PM AEST
Moon 10:18 AM AEST (5/4) 9:19 PM AEST (5/4)
Length of Visible Light 11h 46m
Length of Day
10h 57m
Waxing Crescent, 23% of the Moon is Illuminated
May 4
Waxing Crescent
May 7
First Quarter
May 15
Full
May 21
Last Quarter
May 29
New

Hourly Weather History & Observations

Time (AEST) Temp. Windchill Dew Point Humidity Pressure Visibility Wind Dir Wind Speed Gust Speed Precip Events Conditions
12:00 AM 47 °F - 42 °F 76% 29.81 in - Calm Calm - -  
12:00 AM 46.4 °F - 41.0 °F 81% 29.80 in 6.2 mi Calm Calm - N/A   Unknown
12:30 AM 44.6 °F - 41.0 °F 87% 29.80 in 6.2 mi Calm Calm - N/A   Unknown
1:00 AM 44.6 °F 42.2 °F 42.8 °F 93% 29.80 in 6.2 mi WSW 4.6 mph - N/A   Unknown
1:30 AM 42.8 °F - 41.0 °F 93% 29.80 in 6.2 mi SW 2.3 mph - N/A   Unknown
2:00 AM 44.6 °F 43.1 °F 41.0 °F 87% 29.80 in 6.2 mi West 3.5 mph - N/A   Unknown
2:30 AM 48.2 °F - 42.8 °F 82% 29.80 in 6.2 mi West 5.8 mph - N/A   Unknown
3:00 AM 48 °F - 39 °F 62% 29.79 in - WNW 10.4 mph - -  
3:00 AM 48.2 °F - 39.2 °F 71% 29.77 in 6.2 mi WNW 10.4 mph - N/A   Unknown
3:30 AM 51.8 °F - 39.2 °F 62% 29.77 in 6.2 mi NW 11.5 mph - N/A   Unknown
4:00 AM 51.8 °F - 37.4 °F 58% 29.80 in 6.2 mi WNW 11.5 mph - N/A   Unknown
4:30 AM 51.8 °F - 37.4 °F 58% 29.80 in 6.2 mi WNW 11.5 mph - N/A   Unknown
5:00 AM 51.8 °F - 37.4 °F 58% 29.80 in 6.2 mi WNW 10.4 mph - N/A   Unknown
5:30 AM 50.0 °F - 37.4 °F 62% 29.80 in 6.2 mi WNW 8.1 mph - N/A   Unknown
6:00 AM 50 °F - 37 °F 51% 29.83 in - WNW 9.2 mph - -  
6:00 AM 50.0 °F - 37.4 °F 62% 29.83 in 6.2 mi WNW 9.2 mph - N/A   Unknown
6:30 AM 50.0 °F - 39.2 °F 66% 29.83 in 6.2 mi NW 9.2 mph - N/A   Unknown
7:00 AM 53.6 °F - 39.2 °F 58% 29.83 in 6.2 mi NW 10.4 mph - N/A   Unknown
7:30 AM 55.4 °F - 39.2 °F 54% 29.83 in 6.2 mi ESE 6.9 mph - N/A   Unknown
8:00 AM 57.2 °F - 37.4 °F 48% 29.86 in 6.2 mi WNW 5.8 mph - N/A   Unknown
8:30 AM 59.0 °F - 37.4 °F 45% 29.86 in 6.2 mi West 11.5 mph - N/A   Unknown
9:00 AM 61 °F - 38 °F 31% 29.86 in - WNW 15.0 mph - -  
9:00 AM 60.8 °F - 37.4 °F 42% 29.86 in 6.2 mi WNW 15.0 mph - N/A   Unknown
9:30 AM 60.8 °F - 37.4 °F 42% 29.86 in 6.2 mi WNW 12.7 mph - N/A   Unknown
10:00 AM 62.6 °F - 37.4 °F 39% 29.86 in 6.2 mi WNW 13.8 mph - N/A   Unknown
10:30 AM 62.6 °F - 39.2 °F 42% 29.86 in 6.2 mi WNW 15.0 mph - N/A   Unknown
11:00 AM 64.4 °F - 39.2 °F 40% 29.83 in 6.2 mi WNW 16.1 mph - N/A   Unknown
11:30 AM 64.4 °F - 39.2 °F 40% 29.83 in 6.2 mi WNW 18.4 mph - N/A   Unknown
12:00 PM 65 °F - 38 °F 25% 29.83 in - WNW 15.0 mph - -  
12:00 PM 66.2 °F - 37.4 °F 35% 29.83 in 6.2 mi WNW 15.0 mph - N/A   Unknown
12:30 PM 66.2 °F - 37.4 °F 35% 29.83 in 6.2 mi WNW 13.8 mph - N/A   Unknown
1:00 PM 66.2 °F - 37.4 °F 35% 29.80 in 6.2 mi WNW 12.7 mph - N/A   Unknown
1:30 PM 68.0 °F - 39.2 °F 35% 29.80 in 6.2 mi WNW 12.7 mph - N/A   Unknown
2:00 PM 68.0 °F - 39.2 °F 35% 29.80 in 6.2 mi WNW 11.5 mph - N/A   Unknown
2:30 PM 69.8 °F - 41.0 °F 35% 29.80 in 6.2 mi WNW 10.4 mph - N/A   Unknown
3:00 PM 69 °F - 39 °F 22% 29.83 in - West 12.7 mph - -  
3:00 PM 68.0 °F - 39.2 °F 35% 29.83 in 6.2 mi West 12.7 mph - N/A   Unknown
3:30 PM 68.0 °F - 37.4 °F 33% 29.83 in 6.2 mi West 10.4 mph - N/A   Unknown
4:00 PM 66.2 °F - 39.2 °F 37% 29.83 in 6.2 mi WNW 10.4 mph - N/A   Unknown
4:30 PM 66.2 °F - 41.0 °F 40% 29.86 in 6.2 mi WNW 8.1 mph - N/A   Unknown
5:00 PM 62.6 °F - 41.0 °F 45% 29.86 in 6.2 mi WNW 9.2 mph - N/A   Unknown
5:30 PM 60.8 °F - 41.0 °F 48% 29.89 in 6.2 mi West 8.1 mph - N/A   Unknown
6:00 PM 60 °F - 41 °F 37% 29.90 in - WNW 9.2 mph - -  
6:00 PM 60.8 °F - 41.0 °F 48% 29.89 in 6.2 mi WNW 9.2 mph - N/A   Unknown
6:30 PM 59.0 °F - 41.0 °F 51% 29.92 in 6.2 mi NW 5.8 mph - N/A   Unknown
7:00 PM 55.4 °F - 41.0 °F 58% 29.92 in 6.2 mi Calm Calm - N/A   Unknown
7:30 PM 51.8 °F - 41.0 °F 67% 29.95 in 6.2 mi SSW 2.3 mph - N/A   Unknown
8:00 PM 51.8 °F - 42.8 °F 71% 29.95 in 6.2 mi East 4.6 mph - N/A   Unknown
8:30 PM 48.2 °F - 42.8 °F 82% 29.95 in 6.2 mi Calm Calm - N/A   Unknown
9:00 PM 48 °F - 44 °F 80% 29.97 in - WSW 3.5 mph - -  
9:00 PM 48.2 °F - 44.6 °F 87% 29.95 in 6.2 mi WSW 3.5 mph - N/A   Unknown
9:30 PM 50.0 °F - 46.4 °F 87% 29.98 in 6.2 mi WSW 5.8 mph - N/A   Unknown
10:00 PM 48.2 °F - 44.6 °F 87% 29.98 in 6.2 mi SW 2.3 mph - N/A   Unknown
10:30 PM 46.4 °F 44.3 °F 42.8 °F 87% 29.98 in 6.2 mi West 4.6 mph - N/A   Unknown
11:00 PM 46.4 °F 44.3 °F 42.8 °F 87% 29.98 in 6.2 mi WSW 4.6 mph - N/A   Unknown
11:30 PM 46.4 °F - 42.8 °F 87% 29.98 in 6.2 mi SSW 1.2 mph - N/A   Unknown